Time,TemperatureF,DewpointF,PressureIn,WindDirection,WindDirectionDegrees,WindSpeedMPH,WindSpeedGustMPH,Humidity,HourlyPrecipIn,Conditions,Clouds,dailyrainin,SolarRadiationWatts/m^2,SoftwareType,DateUTC
2013-09-13 00:02:00,65.0,57.0,-100.00,SSW,212,0.0,2.0,75,0.00,,,0.00,0.000000,,2013-09-13 07:02:00,
2013-09-13 00:11:00,65.0,57.0,-100.00,SSW,212,0.0,2.0,75,0.00,,,0.00,0.000000,,2013-09-13 07:11:00,
2013-09-13 00:22:00,65.0,57.0,-100.00,SSW,212,0.0,2.0,75,0.00,,,0.00,0.000000,,2013-09-13 07:22:00,
2013-09-13 00:52:00,64.0,56.0,-100.00,WNW,294,1.0,3.0,75,0.00,,,0.00,0.000000,,2013-09-13 07:52:00,
2013-09-13 01:02:00,64.0,56.0,-100.00,WNW,294,1.0,3.0,75,0.00,,,0.00,0.000000,,2013-09-13 08:02:00,
2013-09-13 01:11:00,64.0,56.0,-100.00,WNW,294,1.0,3.0,75,0.00,,,0.00,0.000000,,2013-09-13 08:11:00,
2013-09-13 01:22:00,64.0,56.0,-100.00,WNW,294,1.0,3.0,75,0.00,,,0.00,0.000000,,2013-09-13 08:22:00,
2013-09-13 01:52:00,63.0,54.0,-100.00,SE,130,3.0,4.0,72,0.00,,,0.00,0.000000,,2013-09-13 08:52:00,
2013-09-13 02:02:00,63.0,54.0,-100.00,SE,130,3.0,4.0,72,0.00,,,0.00,0.000000,,2013-09-13 09:02:00,
2013-09-13 02:11:00,63.0,54.0,-100.00,SE,130,3.0,4.0,72,0.00,,,0.00,0.000000,,2013-09-13 09:11:00,
2013-09-13 02:21:00,63.0,54.0,-100.00,SE,130,3.0,4.0,72,0.00,,,0.00,0.000000,,2013-09-13 09:21:00,
2013-09-13 02:54:00,61.0,53.0,-100.00,SW,235,0.0,2.0,76,0.00,,,0.00,0.000000,,2013-09-13 09:54:00,
2013-09-13 03:03:00,61.0,53.0,-100.00,SW,235,0.0,2.0,76,0.00,,,0.00,0.000000,,2013-09-13 10:03:00,
2013-09-13 03:12:00,61.0,53.0,-100.00,SW,235,0.0,2.0,76,0.00,,,0.00,0.000000,,2013-09-13 10:12:00,
2013-09-13 03:22:00,61.0,53.0,-100.00,SW,235,0.0,2.0,76,0.00,,,0.00,0.000000,,2013-09-13 10:22:00,
2013-09-13 03:53:00,60.0,55.0,-100.00,WSW,258,0.0,2.0,83,0.00,,,0.00,0.000000,,2013-09-13 10:53:00,
2013-09-13 04:03:00,60.0,55.0,-100.00,WSW,258,0.0,2.0,83,0.00,,,0.00,0.000000,,2013-09-13 11:03:00,
2013-09-13 04:12:00,60.0,55.0,-100.00,WSW,258,0.0,2.0,83,0.00,,,0.00,0.000000,,2013-09-13 11:12:00,
2013-09-13 04:22:00,60.0,55.0,-100.00,WSW,258,0.0,2.0,83,0.00,,,0.00,0.000000,,2013-09-13 11:22:00,
2013-09-13 04:52:00,59.0,54.0,-100.00,SSE,158,0.0,3.0,84,0.00,,,0.00,0.000000,,2013-09-13 11:52:00,
2013-09-13 05:01:00,59.0,54.0,-100.00,SSE,158,0.0,3.0,84,0.00,,,0.00,0.000000,,2013-09-13 12:01:00,
2013-09-13 05:11:00,59.0,54.0,-100.00,SSE,158,0.0,3.0,84,0.00,,,0.00,0.000000,,2013-09-13 12:11:00,
2013-09-13 05:21:00,59.0,54.0,-100.00,SSE,158,0.0,3.0,84,0.00,,,0.00,0.000000,,2013-09-13 12:21:00,
2013-09-13 05:52:00,59.0,52.0,-100.00,South,172,0.0,4.0,78,0.00,,,0.00,0.000000,,2013-09-13 12:52:00,
2013-09-13 06:02:00,59.0,52.0,-100.00,South,172,0.0,4.0,78,0.00,,,0.00,0.000000,,2013-09-13 13:02:00,
2013-09-13 06:11:00,59.0,52.0,-100.00,South,172,0.0,4.0,78,0.00,,,0.00,0.000000,,2013-09-13 13:11:00,
2013-09-13 06:21:00,59.0,52.0,-100.00,South,172,0.0,4.0,78,0.00,,,0.00,0.000000,,2013-09-13 13:21:00,
2013-09-13 06:52:00,63.0,50.0,-100.00,South,177,0.0,3.0,62,0.00,,,0.00,0.000000,,2013-09-13 13:52:00,
2013-09-13 07:02:00,63.0,50.0,-100.00,South,177,0.0,3.0,62,0.00,,,0.00,0.000000,,2013-09-13 14:02:00,
2013-09-13 07:11:00,63.0,50.0,-100.00,South,177,0.0,3.0,62,0.00,,,0.00,0.000000,,2013-09-13 14:11:00,
2013-09-13 07:21:00,63.0,50.0,-100.00,South,177,0.0,3.0,62,0.00,,,0.00,0.000000,,2013-09-13 14:21:00,
2013-09-13 07:52:00,64.0,49.0,-100.00,SSE,160,0.0,4.0,59,0.00,,,-99.99,6.000000,,2013-09-13 14:52:00,
2013-09-13 08:02:00,64.0,49.0,-100.00,SSE,160,0.0,4.0,59,0.00,,,-99.99,6.000000,,2013-09-13 15:02:00,
2013-09-13 08:11:00,64.0,49.0,-100.00,SSE,160,0.0,4.0,59,0.00,,,-99.99,6.000000,,2013-09-13 15:11:00,
2013-09-13 08:21:00,64.0,49.0,-100.00,SSE,160,0.0,4.0,59,0.00,,,-99.99,6.000000,,2013-09-13 15:21:00,
2013-09-13 08:53:00,65.0,52.0,-100.00,NNE,32,1.0,2.0,62,0.00,,,0.00,63.000000,,2013-09-13 15:53:00,
2013-09-13 09:03:00,65.0,52.0,-100.00,NNE,32,1.0,2.0,62,0.00,,,0.00,63.000000,,2013-09-13 16:03:00,
2013-09-13 09:12:00,65.0,52.0,-100.00,NNE,32,1.0,2.0,62,0.00,,,0.00,63.000000,,2013-09-13 16:12:00,
2013-09-13 09:24:00,65.0,52.0,-100.00,NNE,32,1.0,2.0,62,0.00,,,0.00,63.000000,,2013-09-13 16:24:00,
2013-09-13 09:54:00,70.0,55.0,-100.00,NW,312,0.0,1.0,58,0.00,,,0.00,262.000000,,2013-09-13 16:54:00,
2013-09-13 10:04:00,70.0,55.0,-100.00,NW,312,0.0,1.0,58,0.00,,,0.00,262.000000,,2013-09-13 17:04:00,
2013-09-13 10:13:00,70.0,55.0,-100.00,NW,312,0.0,1.0,58,0.00,,,0.00,262.000000,,2013-09-13 17:13:00,
2013-09-13 10:23:00,70.0,55.0,-100.00,NW,312,0.0,1.0,58,0.00,,,0.00,262.000000,,2013-09-13 17:23:00,
2013-09-13 10:53:00,68.0,57.0,-100.00,NE,47,2.0,3.0,69,0.00,,,0.00,443.000000,,2013-09-13 17:53:00,
2013-09-13 11:02:00,68.0,57.0,-100.00,NE,47,2.0,3.0,69,0.00,,,0.00,443.000000,,2013-09-13 18:02:00,
2013-09-13 11:12:00,68.0,57.0,-100.00,NE,47,2.0,3.0,69,0.00,,,0.00,443.000000,,2013-09-13 18:12:00,
2013-09-13 11:22:00,68.0,57.0,-100.00,NE,47,2.0,3.0,69,0.00,,,0.00,443.000000,,2013-09-13 18:22:00,
2013-09-13 11:52:00,71.0,59.0,-100.00,West,269,2.0,3.0,65,0.00,,,0.00,573.000000,,2013-09-13 18:52:00,
2013-09-13 12:01:00,71.0,59.0,-100.00,West,269,2.0,3.0,65,0.00,,,0.00,573.000000,,2013-09-13 19:01:00,
2013-09-13 12:11:00,71.0,59.0,-100.00,West,269,2.0,3.0,65,0.00,,,0.00,573.000000,,2013-09-13 19:11:00,
2013-09-13 12:22:00,71.0,59.0,-100.00,West,269,2.0,3.0,65,0.00,,,0.00,573.000000,,2013-09-13 19:22:00,
2013-09-13 12:52:00,68.0,55.0,-100.00,NW,321,3.0,5.0,64,0.00,,,0.00,660.000000,,2013-09-13 19:52:00,
2013-09-13 13:02:00,68.0,55.0,-100.00,NW,321,3.0,5.0,64,0.00,,,0.00,660.000000,,2013-09-13 20:02:00,
2013-09-13 13:11:00,68.0,55.0,-100.00,NW,321,3.0,5.0,64,0.00,,,0.00,660.000000,,2013-09-13 20:11:00,
2013-09-13 13:21:00,68.0,55.0,-100.00,NW,321,3.0,5.0,64,0.00,,,0.00,660.000000,,2013-09-13 20:21:00,
2013-09-13 13:52:00,70.0,57.0,-100.00,WNW,296,3.0,8.0,63,0.00,,,0.00,703.000000,,2013-09-13 20:52:00,
2013-09-13 14:02:00,70.0,57.0,-100.00,WNW,296,3.0,8.0,63,0.00,,,0.00,703.000000,,2013-09-13 21:02:00,
2013-09-13 14:11:00,70.0,57.0,-100.00,WNW,296,3.0,8.0,63,0.00,,,0.00,703.000000,,2013-09-13 21:11:00,
2013-09-13 14:21:00,70.0,57.0,-100.00,WNW,296,3.0,8.0,63,0.00,,,0.00,703.000000,,2013-09-13 21:21:00,
2013-09-13 14:54:00,71.0,57.0,-100.00,NW,323,4.0,7.0,61,0.00,,,0.00,693.000000,,2013-09-13 21:54:00,
2013-09-13 15:04:00,71.0,57.0,-100.00,NW,323,4.0,7.0,61,0.00,,,0.00,693.000000,,2013-09-13 22:04:00,
2013-09-13 15:13:00,71.0,57.0,-100.00,NW,323,4.0,7.0,61,0.00,,,0.00,693.000000,,2013-09-13 22:13:00,
2013-09-13 15:24:00,71.0,57.0,-100.00,NW,323,4.0,7.0,61,0.00,,,0.00,693.000000,,2013-09-13 22:24:00,
2013-09-13 15:53:00,71.0,58.0,-100.00,WNW,297,4.0,9.0,63,-99.99,,,0.00,633.000000,,2013-09-13 22:53:00,
2013-09-13 16:03:00,71.0,58.0,-100.00,WNW,297,4.0,9.0,63,-99.99,,,0.00,633.000000,,2013-09-13 23:03:00,
2013-09-13 16:12:00,71.0,58.0,-100.00,WNW,297,4.0,9.0,63,-99.99,,,0.00,633.000000,,2013-09-13 23:12:00,
2013-09-13 16:21:00,71.0,58.0,-100.00,WNW,297,4.0,9.0,63,-99.99,,,0.00,633.000000,,2013-09-13 23:21:00,
2013-09-13 16:52:00,70.0,59.0,-100.00,NW,311,4.0,8.0,68,0.00,,,0.00,531.000000,,2013-09-13 23:52:00,
2013-09-13 17:01:00,70.0,59.0,-100.00,NW,311,4.0,8.0,68,0.00,,,0.00,531.000000,,2013-09-14 00:01:00,
2013-09-13 17:11:00,70.0,59.0,-100.00,NW,311,4.0,8.0,68,0.00,,,0.00,531.000000,,2013-09-14 00:11:00,
2013-09-13 17:22:00,70.0,59.0,-100.00,NW,311,4.0,8.0,68,0.00,,,0.00,531.000000,,2013-09-14 00:22:00,
2013-09-13 17:52:00,70.0,60.0,-100.00,NNW,332,2.0,9.0,71,0.00,,,0.00,392.000000,,2013-09-14 00:52:00,
2013-09-13 18:02:00,70.0,60.0,-100.00,NNW,332,2.0,9.0,71,0.00,,,0.00,392.000000,,2013-09-14 01:02:00,
2013-09-13 18:11:00,70.0,60.0,-100.00,NNW,332,2.0,9.0,71,0.00,,,0.00,392.000000,,2013-09-14 01:11:00,
2013-09-13 18:21:00,70.0,60.0,-100.00,NNW,332,2.0,9.0,71,0.00,,,0.00,392.000000,,2013-09-14 01:21:00,
2013-09-13 18:52:00,70.0,61.0,-100.00,NW,324,0.0,4.0,72,0.00,,,0.00,233.000000,,2013-09-14 01:52:00,
2013-09-13 19:02:00,70.0,61.0,-100.00,NW,324,0.0,4.0,72,0.00,,,0.00,233.000000,,2013-09-14 02:02:00,
2013-09-13 19:12:00,70.0,61.0,-100.00,NW,324,0.0,4.0,72,0.00,,,0.00,233.000000,,2013-09-14 02:12:00,
2013-09-13 19:22:00,70.0,61.0,-100.00,NW,324,0.0,4.0,72,0.00,,,0.00,233.000000,,2013-09-14 02:22:00,
2013-09-13 19:52:00,61.0,58.0,-100.00,NNW,339,0.0,3.0,91,0.00,,,0.00,71.000000,,2013-09-14 02:52:00,
2013-09-13 20:02:00,61.0,58.0,-100.00,NNW,339,0.0,3.0,91,0.00,,,0.00,71.000000,,2013-09-14 03:02:00,
2013-09-13 20:11:00,61.0,58.0,-100.00,NNW,339,0.0,3.0,91,0.00,,,0.00,71.000000,,2013-09-14 03:11:00,
2013-09-13 20:22:00,61.0,58.0,-100.00,NNW,339,0.0,3.0,91,0.00,,,0.00,71.000000,,2013-09-14 03:22:00,
2013-09-13 20:55:00,59.0,58.0,-100.00,SSE,168,0.0,2.0,96,0.00,,,0.00,1.000000,,2013-09-14 03:55:00,
2013-09-13 21:04:00,59.0,58.0,-100.00,SSE,168,0.0,2.0,96,0.00,,,0.00,1.000000,,2013-09-14 04:04:00,
2013-09-13 21:14:00,59.0,58.0,-100.00,SSE,168,0.0,2.0,96,0.00,,,0.00,1.000000,,2013-09-14 04:14:00,
2013-09-13 21:24:00,59.0,58.0,-100.00,SSE,168,0.0,2.0,96,0.00,,,0.00,1.000000,,2013-09-14 04:24:00,
2013-09-13 21:54:00,61.0,59.0,-100.00,SSW,207,0.0,1.0,93,0.00,,,0.00,0.000000,,2013-09-14 04:54:00,
2013-09-13 22:03:00,61.0,59.0,-100.00,SSW,207,0.0,1.0,93,0.00,,,0.00,0.000000,,2013-09-14 05:03:00,
2013-09-13 22:13:00,61.0,59.0,-100.00,SSW,207,0.0,1.0,93,0.00,,,0.00,0.000000,,2013-09-14 05:13:00,
2013-09-13 22:22:00,61.0,59.0,-100.00,SSW,207,0.0,1.0,93,0.00,,,0.00,0.000000,,2013-09-14 05:22:00,
2013-09-13 22:52:00,61.0,57.0,-100.00,SE,142,1.0,3.0,88,0.00,,,0.00,0.000000,,2013-09-14 05:52:00,
2013-09-13 23:02:00,61.0,57.0,-100.00,SE,142,1.0,3.0,88,0.00,,,0.00,0.000000,,2013-09-14 06:02:00,
2013-09-13 23:12:00,61.0,57.0,-100.00,SE,142,1.0,3.0,88,0.00,,,0.00,0.000000,,2013-09-14 06:12:00,
2013-09-13 23:21:00,61.0,57.0,-100.00,SE,142,1.0,3.0,88,0.00,,,0.00,0.000000,,2013-09-14 06:21:00,
2013-09-13 23:52:00,62.0,55.0,-100.00,SE,130,0.0,2.0,79,0.00,,,0.00,0.000000,,2013-09-14 06:52:00,